Regional Weather Roundup
Issued by NWS

Home | Current Version | Previous Version | Graphics & Text | Print | Product List | Glossary On
Versions: 1 2 3 4 5 6 7 8 9 10 11 12 13 14 15 16 17 18 19 20 21 22 23 24 25 26 27 28 29 30 31 32 33 34 35 36 37 38 39 40 41 42 43 44 45 46 47 48 49 50
233
ASUS43 KLMK 291302
RWRKY
KENTUCKY REGIONAL WEATHER ROUNDUP
NATIONAL WEATHER SERVICE LOUISVILLE KY
900 AM EDT THU SEP 29 2016

NOTE "FAIR" INDICATES FEW OR NO CLOUDS BELOW 12,000 FEET
WITH NO SIGNIFICANT WEATHER AND/OR OBSTRUCTIONS TO VISIBILITY.

KYZ001>023-026-027-061>063-070>075-291400-
WESTERN AND SOUTH CENTRAL KENTUCKY

CITY           SKY/WX    TMP DP  RH WIND       PRES   REMARKS
PADUCAH        CLOUDY    55  50  83 NW8       30.10R
HENDERSON      CLOUDY    54  48  82 W7        30.05R
OWENSBORO      PTSUNNY  N/A N/A N/A W9        30.04S
HOPKINSVILLE   CLOUDY    52  50  92 W6        30.06R
BOWLING GREEN  SUNNY     53  49  86 W6        30.05S
GLASGOW        MOSUNNY  N/A N/A N/A W3        30.05R
$$

KYZ024-025-028>034-038-045-046-053-291400-
NORTH CENTRAL KENTUCKY

CITY           SKY/WX    TMP DP  RH WIND       PRES   REMARKS
LOUISVILLE/SDF LGT RAIN  55  51  86 CALM      30.04R
LOUISVILLE/LOU CLOUDY    56  51  84 CALM      30.05R
FORT KNOX      PTSUNNY   50  50  99 W6        30.03R
$$

KYZ035>037-039>044-047>052-055>060-089>105-291400-
NORTHEAST KENTUCKY

CITY           SKY/WX    TMP DP  RH WIND       PRES   REMARKS
LEXINGTON      CLOUDY    54  51  90 CALM      30.04R
COVINGTON      CLOUDY    54  53  97 CALM      30.05R FOG
FRANKFORT      PTSUNNY   53  50  89 CALM      30.04R
$$

KYZ054-064>069-076>088-106>120-291400-
SOUTHEAST KENTUCKY

CITY           SKY/WX    TMP DP  RH WIND       PRES   REMARKS
JACKSON        CLOUDY    55  53  93 NW3       30.02R FOG
LONDON         CLOUDY    54  50  86 CALM      30.03R
SOMERSET       CLOUDY    52  52 100 N6        30.05R
MIDDLESBORO    CLOUDY    55  54  94 CALM      30.03R
MONTICELLO     CLOUDY    54  52  93 W8        30.06R
$$





USA.gov is the U.S. government's official web portal to all federal, state and local government web resources and services.